Location: Newark
(45.7167°N, 7.8833°E)
Time: 12:55:56
(UTC+00:00)

ISS - Pass Details

Date: 01 April 2020
Orbit: 417 x 419 km, 51.6° (Epoch: 03 June)

Event Time Altitude Azimuth Distance (km) Brightness Sun altitude
Rises 20:29:13 0° 293° (WNW) 2,365 1.3 -25.1°
Reaches altitude 10° 20:31:27 10° 283° (WNW) 1,497 -0.1 -25.4°
Enters shadow 20:32:59 21° 264° (W) 990 -1.5 -25.6°
